TimeICT,TemperatureF,Dew PointF,Humidity,Sea Level PressureIn,VisibilityMPH,Wind Direction,Wind SpeedMPH,Gust SpeedMPH,PrecipitationIn,Events,Conditions,WindDirDegrees,DateUTC
12:00 AM,77.0,64.4,65,29.86,5.6,ENE,4.6,-,N/A,,Unknown,60,2012-12-31 17:00:00
12:30 AM,77.0,64.4,65,29.86,5.6,ENE,4.6,-,N/A,,Unknown,60,2012-12-31 17:30:00
1:00 AM,77.0,64.4,65,29.86,5.6,North,6.9,-,N/A,,Unknown,350,2012-12-31 18:00:00
6:00 AM,73.4,64.4,73,29.86,5.6,NNE,6.9,-,N/A,,Scattered Clouds,20,2012-12-31 23:00:00
6:30 AM,73.4,64.4,73,29.86,5.6,North,6.9,-,N/A,,Scattered Clouds,10,2012-12-31 23:30:00
7:00 AM,72,65,72,29.92,6,North,8.9,,,,Scattered Clouds,0,2013-01-01 00:00:00
7:00 AM,73.4,64.4,73,29.89,5.6,North,6.9,-,N/A,,Unknown,10,2013-01-01 00:00:00
7:30 AM,73.4,62.6,69,29.89,5.6,NNE,8.1,-,N/A,,Unknown,20,2013-01-01 00:30:00
8:00 AM,75.2,62.6,65,29.92,5.6,North,9.2,-,N/A,,Unknown,10,2013-01-01 01:00:00
8:30 AM,77.0,62.6,61,29.92,-9999.0,North,10.4,-,N/A,,Clear,360,2013-01-01 01:30:00
9:00 AM,78.8,62.6,57,29.92,-9999.0,North,9.2,-,N/A,,Clear,10,2013-01-01 02:00:00
9:30 AM,78.8,62.6,57,29.92,-9999.0,NNE,9.2,-,N/A,,Clear,20,2013-01-01 02:30:00
10:00 AM,78.8,64.4,61,29.92,-9999.0,North,10.4,-,N/A,,Clear,350,2013-01-01 03:00:00
10:30 AM,78.8,64.4,61,29.92,-9999.0,NNE,10.4,-,N/A,,Clear,20,2013-01-01 03:30:00
11:00 AM,80.6,64.4,58,29.89,-9999.0,NNW,10.4,-,N/A,,Clear,330,2013-01-01 04:00:00
11:30 AM,82.4,64.4,54,29.89,-9999.0,NNW,11.5,-,N/A,,Clear,340,2013-01-01 04:30:00
12:00 PM,82.4,64.4,54,29.86,5.6,North,8.1,-,N/A,,Unknown,10,2013-01-01 05:00:00
12:30 PM,82.4,64.4,54,29.86,5.6,NNW,5.8,-,N/A,,Unknown,340,2013-01-01 05:30:00
1:30 PM,84.2,64.4,51,29.83,5.6,NW,6.9,-,N/A,,Unknown,320,2013-01-01 06:30:00
2:00 PM,86.0,62.6,45,29.83,-9999.0,NNE,10.4,-,N/A,,Clear,20,2013-01-01 07:00:00
2:30 PM,87.8,64.4,46,29.80,-9999.0,NE,11.5,-,N/A,,Clear,40,2013-01-01 07:30:00
3:00 PM,86.0,64.4,48,29.80,-9999.0,NNE,8.1,-,N/A,,Clear,20,2013-01-01 08:00:00
3:30 PM,86.0,64.4,48,29.80,-9999.0,North,4.6,-,N/A,,Clear,360,2013-01-01 08:30:00
4:00 PM,84.2,66.2,55,29.80,-9999.0,NNW,9.2,-,N/A,,Clear,340,2013-01-01 09:00:00
4:30 PM,84.2,66.2,55,29.80,-9999.0,NW,4.6,-,N/A,,Clear,310,2013-01-01 09:30:00
5:00 PM,84.2,66.2,55,29.80,-9999.0,NW,4.6,-,N/A,,Clear,310,2013-01-01 10:00:00
5:30 PM,84.2,66.2,55,29.83,5.6,NW,4.6,-,N/A,,Unknown,320,2013-01-01 10:30:00
6:00 PM,84.2,68.0,58,29.83,5.6,NNW,4.6,-,N/A,,Unknown,330,2013-01-01 11:00:00
6:30 PM,82.4,66.2,58,29.83,5.6,NNW,4.6,-,N/A,,Unknown,330,2013-01-01 11:30:00
9:00 PM,80.6,68.0,65,29.86,5.6,NNW,5.8,-,N/A,,Unknown,340,2013-01-01 14:00:00
9:30 PM,80.6,68.0,65,29.86,5.6,North,5.8,-,N/A,,Unknown,350,2013-01-01 14:30:00
10:00 PM,80.6,68.0,65,29.86,5.6,North,5.8,-,N/A,,Unknown,350,2013-01-01 15:00:00
10:30 PM,78.8,68.0,69,29.86,5.6,North,5.8,-,N/A,,Unknown,350,2013-01-01 15:30:00
11:00 PM,78.8,68.0,69,29.86,5.6,North,5.8,-,N/A,,Unknown,360,2013-01-01 16:00:00
11:30 PM,78.8,68.0,69,29.86,5.6,North,4.6,-,N/A,,Unknown,360,2013-01-01 16:30:00